| time (UTC) | temp F | wind direction | speed MPH | gust MPH | rain 1hr in | rain 24hr in | rain mn in | humidity % | barometer mb |
| 20260503232107 | 76 | 270 | 2.0 | 0.0 | 0.00 | 0.00 | 0.30 | 4 | |
| 20260503231106 | 77 | 203 | 1.0 | 0.0 | 0.00 | 0.00 | 0.30 | 4 | |
| 20260503230107 | 77 | 270 | 1.0 | 0.0 | 0.00 | 0.00 | 0.30 | 4 | |
| 20260503225107 | 77 | 0 | 2.0 | 0.0 | 0.00 | 0.00 | 0.30 | 4 | |
| 20260503224106 | 77 | 270 | 2.0 | 0.0 | 0.00 | 0.00 | 0.30 | 3 | |
| 20260503223108 | 78 | 270 | 4.0 | 0.0 | 0.00 | 0.00 | 0.30 | 4 | |
| 20260503222107 | 78 | 270 | 3.0 | 0.0 | 0.00 | 0.00 | 0.30 | 3 | |
| 20260503221107 | 79 | 270 | 3.0 | 0.0 | 0.00 | 0.00 | 0.30 | 4 | |
| 20260503220107 | 79 | 293 | 3.0 | 0.0 | 0.00 | 0.00 | 0.30 | 3 | |
| 20260503215107 | 80 | 248 | 2.0 | 0.0 | 0.00 | 0.00 | 0.30 | 4 | |
| 20260503214106 | 80 | 270 | 2.0 | 0.0 | 0.00 | 0.00 | 0.30 | 3 | |
| 20260503213106 | 81 | 270 | 2.0 | 0.0 | 0.00 | 0.00 | 0.30 | 3 | |
| 20260503212108 | 80 | 0 | 3.0 | 0.0 | 0.00 | 0.00 | 0.30 | 3 | |
| 20260503211107 | 80 | 270 | 4.0 | 0.0 | 0.00 | 0.00 | 0.30 | 3 | |
| 20260503210106 | 82 | 293 | 2.0 | 0.0 | 0.00 | 0.00 | 0.30 | 3 | |
| 20260503205107 | 83 | 315 | 2.0 | 0.0 | 0.00 | 0.00 | 0.30 | 3 | |
| 20260503204106 | 82 | 293 | 2.0 | 0.0 | 0.00 | 0.00 | 0.30 | 3 | |
| 20260503203106 | 83 | 293 | 3.0 | 0.0 | 0.00 | 0.00 | 0.30 | 3 | |
| 20260503202106 | 82 | 270 | 1.0 | 0.0 | 0.00 | 0.00 | 0.30 | 3 | |
| 20260503201106 | 82 | 270 | 2.0 | 0.0 | 0.00 | 0.00 | 0.30 | 3 | |
| 20260503200108 | 83 | 338 | 2.0 | 0.0 | 0.00 | 0.00 | 0.30 | 3 | |
| 20260503195108 | 83 | 270 | 1.0 | 0.0 | 0.00 | 0.00 | 0.30 | 3 | |
| 20260503194106 | 82 | 270 | 2.0 | 0.0 | 0.00 | 0.00 | 0.30 | 4 | |
| 20260503193106 | 82 | 203 | 2.0 | 0.0 | 0.00 | 0.00 | 0.30 | 3 | |
| 20260503192107 | 83 | 293 | 3.0 | 0.0 | 0.00 | 0.00 | 0.30 | 3 | |
| 20260503191107 | 82 | 270 | 3.0 | 0.0 | 0.00 | 0.00 | 0.30 | 3 | |
| 20260503190107 | 81 | 203 | 2.0 | 0.0 | 0.00 | 0.00 | 0.30 | 3 | |
| 20260503185107 | 81 | 270 | 2.0 | 0.0 | 0.00 | 0.00 | 0.30 | 3 | |
| 20260503184106 | 81 | 315 | 2.0 | 0.0 | 0.00 | 0.00 | 0.30 | 3 | |
| 20260503183107 | 81 | 225 | 0.0 | 0.0 | 0.00 | 0.00 | 0.30 | 3 | |
| 20260503182107 | 80 | 315 | 2.0 | 0.0 | 0.00 | 0.00 | 0.30 | 4 | |
| 20260503181107 | 79 | 293 | 2.0 | 0.0 | 0.00 | 0.00 | 0.30 | 4 | |
| 20260503180107 | 79 | 270 | 2.0 | 0.0 | 0.00 | 0.00 | 0.30 | 3 | |
| 20260503175107 | 78 | 338 | 0.0 | 0.0 | 0.00 | 0.00 | 0.30 | 4 | |
| 20260503174106 | 78 | 270 | 1.0 | 0.0 | 0.00 | 0.00 | 0.30 | 4 | |
| 20260503173106 | 78 | 248 | 0.0 | 0.0 | 0.00 | 0.00 | 0.30 | 4 | |
| 20260503172107 | 78 | 113 | 1.0 | 0.0 | 0.00 | 0.00 | 0.30 | 4 | |
| 20260503171107 | 77 | 270 | 3.0 | 0.0 | 0.00 | 0.00 | 0.30 | 4 | |
| 20260503170106 | 76 | 293 | 0.0 | 0.0 | 0.00 | 0.00 | 0.30 | 4 | |
| 20260503160106 | 73 | 293 | 2.0 | 0.0 | 0.00 | 0.00 | 0.30 | 4 | |
| 20260503150107 | 67 | 0 | 0.0 | 0.0 | 0.00 | 0.00 | 0.30 | 7 | |
| 20260503140107 | 60 | 203 | 0.0 | 0.0 | 0.00 | 0.00 | 0.30 | 8 | |
| 20260503131106 | 55 | 23 | 0.0 | 0.0 | 0.00 | 0.00 | 0.30 | 8 | |
| 20260503130106 | 54 | 135 | 0.0 | 0.0 | 0.00 | 0.00 | 0.30 | 9 | |
| 20260503120106 | 52 | 203 | 0.0 | 0.0 | 0.00 | 0.00 | 0.30 | 9 | |
| 20260503110106 | 52 | 180 | 0.0 | 0.0 | 0.00 | 0.00 | 0.30 | 9 | |
| 20260503100107 | 53 | 203 | 0.0 | 0.0 | 0.00 | 0.00 | 0.30 | 9 | |
| 20260503090107 | 53 | 203 | 0.0 | 0.0 | 0.00 | 0.00 | 0.30 | 9 | |
| 20260503081107 | 52 | 180 | 0.0 | 0.0 | 0.00 | 0.00 | 0.30 | 9 | |
| 20260503080108 | 53 | 203 | 0.0 | 0.0 | 0.00 | 0.00 | 0.30 | 9 | |
| 20260503072107 | 53 | 180 | 0.0 | 0.0 | 0.00 | 0.00 | 0.30 | 9 | |
| 20260503071107 | 53 | 180 | 0.0 | 0.0 | 0.00 | 0.00 | 0.30 | 9 | |
| 20260503070107 | 54 | 203 | 0.0 | 0.0 | 0.00 | 0.00 | 0.30 | 9 | |
| 20260503060107 | 55 | 225 | 0.0 | 0.0 | 0.00 | 0.00 | 0.30 | 8 | |
| 20260503055106 | 55 | 225 | 0.0 | 0.0 | 0.00 | 0.00 | 0.30 | 8 | |
| 20260503054106 | 56 | 225 | 0.0 | 0.0 | 0.00 | 0.00 | 0.30 | 8 | |
| 20260503053107 | 56 | 203 | 0.0 | 0.0 | 0.00 | 0.00 | 0.30 | 8 | |
| 20260503052106 | 56 | 203 | 0.0 | 0.0 | 0.00 | 0.00 | 0.30 | 8 | |
| 20260503051107 | 56 | 203 | 0.0 | 0.0 | 0.00 | 0.00 | 0.30 | 8 | |
| 20260503050107 | 56 | 203 | 0.0 | 0.0 | 0.00 | 0.00 | 0.30 | 8 | |
| 20260503045107 | 57 | 203 | 0.0 | 0.0 | 0.00 | 0.00 | 0.30 | 8 | |
| 20260503044107 | 57 | 203 | 0.0 | 0.0 | 0.00 | 0.00 | 0.30 | 8 | |
| 20260503043106 | 57 | 203 | 0.0 | 0.0 | 0.00 | 0.00 | 0.30 | 8 | |
| 20260503042107 | 57 | 203 | 0.0 | 0.0 | 0.00 | 0.00 | 0.30 | 8 | |
| 20260503041107 | 58 | 203 | 0.0 | 0.0 | 0.00 | 0.00 | 0.30 | 8 | |
| 20260503040106 | 58 | 203 | 0.0 | 0.0 | 0.00 | 0.00 | 0.30 | 8 | |
| 20260503035106 | 58 | 203 | 0.0 | 0.0 | 0.00 | 0.00 | 0.30 | 8 | |
| 20260503034107 | 58 | 203 | 0.0 | 0.0 | 0.00 | 0.00 | 0.30 | 8 | |
| 20260503033108 | 59 | 203 | 0.0 | 0.0 | 0.00 | 0.00 | 0.30 | 7 | |
| 20260503032108 | 59 | 203 | 0.0 | 0.0 | 0.00 | 0.00 | 0.30 | 7 | |
| 20260503031107 | 59 | 203 | 0.0 | 0.0 | 0.00 | 0.00 | 0.30 | 7 | |
| 20260503030107 | 60 | 203 | 0.0 | 0.0 | 0.00 | 0.00 | 0.30 | 7 | |
| 20260503025108 | 60 | 203 | 0.0 | 0.0 | 0.00 | 0.00 | 0.30 | 7 | |
| 20260503024107 | 60 | 203 | 0.0 | 0.0 | 0.00 | 0.00 | 0.30 | 7 | |
| 20260503023107 | 61 | 225 | 0.0 | 0.0 | 0.00 | 0.00 | 0.30 | 7 | |
| 20260503022107 | 61 | 225 | 0.0 | 0.0 | 0.00 | 0.00 | 0.30 | 7 | |
| 20260503021107 | 62 | 225 | 0.0 | 0.0 | 0.00 | 0.00 | 0.30 | 7 | |
| 20260503020107 | 62 | 225 | 0.0 | 0.0 | 0.00 | 0.00 | 0.30 | 6 | |
| 20260503015107 | 63 | 225 | 0.0 | 0.0 | 0.00 | 0.00 | 0.30 | 6 | |
| 20260503014106 | 64 | 225 | 0.0 | 0.0 | 0.00 | 0.00 | 0.30 | 6 | |
| 20260503013107 | 64 | 225 | 0.0 | 0.0 | 0.00 | 0.00 | 0.30 | 6 | |
| 20260503012107 | 65 | 225 | 0.0 | 0.0 | 0.00 | 0.00 | 0.30 | 6 | |
| 20260503011107 | 66 | 225 | 0.0 | 0.0 | 0.00 | 0.00 | 0.30 | 6 | |
| 20260503010107 | 67 | 225 | 0.0 | 0.0 | 0.00 | 0.00 | 0.30 | 5 | |
| 20260503005107 | 68 | 225 | 0.0 | 0.0 | 0.00 | 0.00 | 0.30 | 5 | |
| 20260503004107 | 68 | 225 | 0.0 | 0.0 | 0.00 | 0.00 | 0.30 | 5 | |
| 20260503003108 | 69 | 225 | 0.0 | 0.0 | 0.00 | 0.00 | 0.30 | 5 | |
| 20260503002108 | 70 | 203 | 0.0 | 0.0 | 0.00 | 0.00 | 0.30 | 5 | |
| 20260503001107 | 70 | 203 | 0.0 | 0.0 | 0.00 | 0.00 | 0.30 | 5 | |
| 20260503000107 | 71 | 203 | 0.0 | 0.0 | 0.00 | 0.00 | 0.30 | 4 | |
| 20260502235106 | 71 | 180 | 0.0 | 0.0 | 0.00 | 0.00 | 0.30 | 4 | |
| 20260502234107 | 72 | 203 | 0.0 | 0.0 | 0.00 | 0.00 | 0.30 | 4 | |
| 20260502233106 | 72 | 248 | 0.0 | 0.0 | 0.00 | 0.00 | 0.30 | 4 |